Погода в Княжьих Гор

Россия / Тверская область     56°04′35″N   35°13′54″E
темп.,
°C
ветер,
м/с
пор.,
м/с
влажн.,
%
обл.,
%
осадки,
мм/ч
давл.,
гПа
погр.,
м
16 июня, ср
ср1600:00+14зсз25913 0.0 101199
03:00+12ссз27935 0.0 1012127
06:00+14ссз3790100 0.0 1013274
09:00+18с466342 0.0 10141007
12:00+21с35434 0.0 10151899
15:00+22с4540100 0.0 10151971
18:00+21с35470 0.0 10161808
21:00+15с227371 0.0 101823
17 июня, чт
чт1700:00+12с22725 0.0 102015
03:00+11с22715 0.0 102233
06:00+13св127317 0.0 102381
09:00+18св2253100 0.0 1024467
12:00+22ссв22405 0.0 10251392
15:00+23св23380 0.0 10251715
18:00+22св12470 0.0 10251012
21:00+16ю11726 0.0 102611
18 июня, пт
пт1800:00+14ю1170100 0.0 102611
03:00+13ююз11722 0.0 102710
06:00+14юз22735 0.0 102863
09:00+21ююз12509 0.0 1028474
12:00+24ююз233939 0.0 10271572
15:00+25юз33415 0.0 10261676
18:00+24юз34535 0.0 10251156
21:00+18ююз22770 0.0 102624
19 июня, сб
сб1900:00+15ююз38911 0.0 1027140
03:00+14юз38905 0.0 1027150
06:00+16юз37855 0.0 1028174
09:00+21юз34625 0.0 1027633
12:00+25ююз344825 0.0 10261354
15:00+26юз34435 0.0 10251484
18:00+25юз34535 0.0 10241072
21:00+19ююз23795 0.0 102442
20 июня, вс
вс2000:00+15ююз37865 0.0 1025122
03:00+14ююз36886 0.0 102598
06:00+15ююз25865 0.0 1025132
09:00+22ююз34630 0.0 1024606
12:00+25ююз34470 0.0 10231370
15:00+26юз34420 0.0 10221509
18:00+25юз34555 0.0 10211137
21:00+20ююз22780 0.0 102120